{"data":{"norad_id":67363,"epoch":"2026-05-25T00:07:48.516960Z","epoch_age_seconds":70656,"freshness":"FRESH","line1":"1 67363U 26004A   26145.00542265  .00003714  00000+0  40904-3 0  9993","line2":"2 67363  97.8015 143.9241 0007834 205.9096 154.1729 14.88127296 19832","mean_motion":14.88127296,"eccentricity":0.0007834,"inclination_deg":97.8015,"raan_deg":143.9241,"arg_perigee_deg":205.9096,"mean_anomaly_deg":154.1729,"bstar":0.00040904,"rev_number":1983,"period_min":96.7659153804,"perigee_km":598.31739846138,"apogee_km":609.25667704373,"semimajor_km":6981.9240377526,"source":"CELESTRAK","updated_at":"2026-05-25T13:38:13.577906Z"}}